• In Sweden
  • List of Countries
  • For 7 days
  • Water Temperature
  • Satellite Maps
  • Weather Map
  • Weather Widgets
  • user-avatar
    Login

    Hourly Weather Northallerton

    Today, 24 September, Sunday

    Time Temperature Precipitation Wind Pressure Humidity
    00:00 +13°C° 0 mm 4 mps 760 mmHg 82%
    01:00 +13°C° 0 mm 4 mps 760 mmHg 81%
    02:00 +13°C° 0 mm 4 mps 760 mmHg 80%
    03:00 +12°C° 0 mm 4 mps 759 mmHg 78%
    04:00 +12°C° 0 mm 4 mps 759 mmHg 80%
    05:00 +11°C° 0 mm 4 mps 759 mmHg 82%
    06:00 +10°C° 0 mm 4 mps 759 mmHg 84%
    07:00 +12°C° 0 mm 4 mps 760 mmHg 82%
    08:00 +13°C° 0 mm 4 mps 760 mmHg 79%
    09:00 +15°C° 0 mm 5 mps 760 mmHg 76%
    10:00 +16°C° 0 mm 5 mps 760 mmHg 73%
    11:00 +17°C° 0 mm 5 mps 760 mmHg 69%
    12:00 +19°C° 0 mm 5 mps 760 mmHg 66%
    13:00 +19°C° 0 mm 5 mps 760 mmHg 67%
    14:00 +19°C° 0 mm 5 mps 759 mmHg 68%
    15:00 +19°C° 0 mm 4 mps 759 mmHg 69%
    16:00 +18°C° 0 mm 4 mps 759 mmHg 71%
    17:00 +17°C° 0 mm 4 mps 759 mmHg 74%
    18:00 +17°C° 0 mm 4 mps 759 mmHg 76%
    19:00 +15°C° 0 mm 4 mps 760 mmHg 76%
    20:00 +15°C° 0 mm 4 mps 760 mmHg 77%
    21:00 +15°C° 0 mm 4 mps 760 mmHg 77%
    22:00 +15°C° 0 mm 4 mps 760 mmHg 79%
    23:00 +14°C° 0 mm 4 mps 760 mmHg 81%

    Tomorrow, 25 September, Monday

    Time Temperature Precipitation Wind Pressure Humidity
    00:00 +14°C° 0 mm 4 mps 760 mmHg 82%
    01:00 +14°C° 0.1 mm 4 mps 760 mmHg 84%
    02:00 +14°C° 0.1 mm 3 mps 760 mmHg 86%
    03:00 +14°C° 0.1 mm 3 mps 760 mmHg 88%
    04:00 +14°C° 0.4 mm 3 mps 760 mmHg 90%
    05:00 +13°C° 0.4 mm 3 mps 760 mmHg 92%
    06:00 +13°C° 0.4 mm 3 mps 760 mmHg 94%
    07:00 +14°C° 0.7 mm 3 mps 760 mmHg 93%
    08:00 +15°C° 0.7 mm 2 mps 760 mmHg 92%
    09:00 +16°C° 0.7 mm 2 mps 761 mmHg 91%
    10:00 +17°C° 0.1 mm 3 mps 760 mmHg 87%
    11:00 +17°C° 0.1 mm 3 mps 760 mmHg 82%
    12:00 +18°C° 0.1 mm 3 mps 760 mmHg 78%
    13:00 +18°C° 0.1 mm 3 mps 761 mmHg 78%
    14:00 +18°C° 0.1 mm 3 mps 761 mmHg 78%
    15:00 +18°C° 0.1 mm 3 mps 761 mmHg 78%
    16:00 +17°C° 0.1 mm 2 mps 761 mmHg 82%
    17:00 +17°C° 0.1 mm 2 mps 761 mmHg 85%
    18:00 +16°C° 0.1 mm 2 mps 761 mmHg 89%
    19:00 +15°C° 0 mm 2 mps 761 mmHg 91%
    20:00 +15°C° 0 mm 2 mps 761 mmHg 92%
    21:00 +15°C° 0 mm 1 mps 762 mmHg 94%
    22:00 +14°C° 0 mm 1 mps 761 mmHg 95%
    23:00 +14°C° 0 mm 1 mps 761 mmHg 95%

    Day after tomorrow, 26 September, Tuesday

    Time Temperature Precipitation Wind Pressure Humidity
    00:00 +14°C° 0 mm 1 mps 761 mmHg 96%
    01:00 +13°C° 0 mm 1 mps 761 mmHg 96%
    02:00 +12°C° 0 mm 0 mps 761 mmHg 96%
    03:00 +12°C° 0 mm 0 mps 761 mmHg 96%
    04:00 +12°C° 0 mm 0 mps 761 mmHg 96%
    05:00 +12°C° 0 mm 0 mps 761 mmHg 96%
    06:00 +11°C° 0 mm 0 mps 761 mmHg 96%
    07:00 +13°C° 0 mm 0 mps 761 mmHg 93%
    08:00 +15°C° 0 mm 1 mps 762 mmHg 90%
    09:00 +16°C° 0 mm 1 mps 762 mmHg 86%
    10:00 +16°C° 0.1 mm 1 mps 762 mmHg 83%
    11:00 +18°C° 0.1 mm 1 mps 762 mmHg 80%
    12:00 +19°C° 0.1 mm 1 mps 762 mmHg 77%
    13:00 +19°C° 0.2 mm 1 mps 761 mmHg 76%
    14:00 +18°C° 0.2 mm 2 mps 761 mmHg 75%
    15:00 +18°C° 0.2 mm 2 mps 761 mmHg 74%
    16:00 +17°C° 0 mm 2 mps 761 mmHg 78%
    17:00 +16°C° 0 mm 2 mps 761 mmHg 82%
    18:00 +15°C° 0 mm 2 mps 761 mmHg 86%
    19:00 +15°C° 0 mm 2 mps 761 mmHg 88%
    20:00 +14°C° 0 mm 2 mps 761 mmHg 91%
    21:00 +14°C° 0 mm 2 mps 762 mmHg 93%
    22:00 +14°C° 0 mm 2 mps 761 mmHg 94%
    23:00 +13°C° 0 mm 2 mps 761 mmHg 95%

    27 September, Wednesday

    Time Temperature Precipitation Wind Pressure Humidity
    00:00 +13°C° 0 mm 2 mps 761 mmHg 95%
    01:00 +13°C° 0 mm 2 mps 761 mmHg 95%
    02:00 +12°C° 0 mm 3 mps 760 mmHg 96%
    03:00 +12°C° 0 mm 3 mps 760 mmHg 96%
    04:00 +12°C° 0 mm 3 mps 760 mmHg 96%
    05:00 +12°C° 0 mm 3 mps 760 mmHg 96%
    06:00 +12°C° 0 mm 3 mps 760 mmHg 96%
    07:00 +13°C° 0 mm 4 mps 760 mmHg 92%
    08:00 +14°C° 0 mm 5 mps 760 mmHg 88%
    09:00 +15°C° 0 mm 6 mps 760 mmHg 83%
    10:00 +16°C° 0 mm 6 mps 760 mmHg 78%
    11:00 +17°C° 0 mm 6 mps 759 mmHg 73%
    12:00 +19°C° 0 mm 6 mps 759 mmHg 68%
    13:00 +19°C° 0 mm 6 mps 759 mmHg 68%
    14:00 +19°C° 0 mm 6 mps 758 mmHg 68%
    15:00 +19°C° 0 mm 6 mps 758 mmHg 68%
    16:00 +17°C° 0.7 mm 5 mps 757 mmHg 73%
    17:00 +16°C° 0.7 mm 5 mps 757 mmHg 77%
    18:00 +15°C° 0.7 mm 5 mps 757 mmHg 82%
    19:00 +14°C° 2.3 mm 6 mps 757 mmHg 84%
    20:00 +14°C° 2.3 mm 6 mps 757 mmHg 87%
    21:00 +12°C° 2.3 mm 7 mps 757 mmHg 89%
    22:00 +13°C° 1.3 mm 6 mps 757 mmHg 90%
    23:00 +14°C° 1.3 mm 6 mps 757 mmHg 91%

    28 September, Thursday

    Time Temperature Precipitation Wind Pressure Humidity
    00:00 +14°C° 1.3 mm 5 mps 757 mmHg 92%
    01:00 +14°C° 0 mm 5 mps 757 mmHg 92%
    02:00 +13°C° 0 mm 4 mps 758 mmHg 93%
    03:00 +13°C° 0 mm 4 mps 758 mmHg 93%
    04:00 +12°C° 0 mm 4 mps 759 mmHg 93%
    05:00 +12°C° 0 mm 4 mps 759 mmHg 93%
    06:00 +11°C° 0 mm 3 mps 760 mmHg 92%
    07:00 +12°C° 0 mm 3 mps 760 mmHg 88%
    08:00 +12°C° 0 mm 3 mps 761 mmHg 84%
    09:00 +13°C° 0 mm 3 mps 761 mmHg 79%
    10:00 +14°C° 0 mm 3 mps 761 mmHg 74%
    11:00 +16°C° 0 mm 2 mps 762 mmHg 68%
    12:00 +17°C° 0 mm 2 mps 762 mmHg 62%
    13:00 +18°C° 0 mm 2 mps 762 mmHg 62%
    14:00 +18°C° 0 mm 2 mps 761 mmHg 61%
    15:00 +18°C° 0 mm 2 mps 761 mmHg 61%
    16:00 +17°C° 0 mm 2 mps 761 mmHg 66%
    17:00 +14°C° 0 mm 3 mps 761 mmHg 72%
    18:00 +13°C° 0 mm 3 mps 761 mmHg 77%
    19:00 +13°C° 0 mm 3 mps 760 mmHg 77%
    20:00 +13°C° 0 mm 4 mps 760 mmHg 78%
    21:00 +13°C° 0 mm 4 mps 760 mmHg 78%
    22:00 +13°C° 0 mm 4 mps 760 mmHg 81%
    23:00 +13°C° 0 mm 4 mps 759 mmHg 83%

    29 September, Friday

    Time Temperature Precipitation Wind Pressure Humidity
    00:00 +12°C° 0 mm 5 mps 758 mmHg 85%
    01:00 +13°C° 0.1 mm 5 mps 758 mmHg 83%
    02:00 +13°C° 0.1 mm 6 mps 757 mmHg 80%
    03:00 +13°C° 0.1 mm 6 mps 756 mmHg 77%
    04:00 +13°C° 1.5 mm 6 mps 756 mmHg 82%
    05:00 +13°C° 1.5 mm 6 mps 756 mmHg 86%
    06:00 +13°C° 1.5 mm 6 mps 755 mmHg 90%
    07:00 +13°C° 1.4 mm 6 mps 755 mmHg 91%
    08:00 +14°C° 1.4 mm 6 mps 754 mmHg 92%
    09:00 +14°C° 1.4 mm 5 mps 754 mmHg 93%
    10:00 +14°C° 1.4 mm 5 mps 754 mmHg 92%
    11:00 +15°C° 1.4 mm 4 mps 753 mmHg 92%
    12:00 +15°C° 1.4 mm 4 mps 753 mmHg 91%
    13:00 +15°C° 0.1 mm 4 mps 753 mmHg 89%
    14:00 +15°C° 0.1 mm 4 mps 753 mmHg 88%
    15:00 +14°C° 0.1 mm 4 mps 753 mmHg 86%
    16:00 +13°C° 0 mm 4 mps 753 mmHg 86%
    17:00 +12°C° 0 mm 4 mps 753 mmHg 87%
    18:00 +11°C° 0 mm 4 mps 754 mmHg 88%
    19:00 +11°C° 0 mm 4 mps 754 mmHg 88%
    20:00 +10°C° 0 mm 4 mps 755 mmHg 89%
    21:00 +8°C° 0 mm 4 mps 755 mmHg 89%
    22:00 +10°C° 0 mm 4 mps 755 mmHg 89%
    23:00 +10°C° 0 mm 4 mps 755 mmHg 89%
    Show more